Trenton, NJ

7:43 PM EST on December 15, 2019 (GMT -0500)
Trenton Mercer

Weather History for KTTN - October, 2019

Change the Weather History Date:

Sunday, October 13, 2019

  Actual Average Record
Temperature  
Mean Temperature 56 °F 55 °F  
Max Temperature 66 °F 66 °F 86 °F (1954)
Min Temperature 47 °F 45 °F 30 °F (2012)
Degree Days  
Heating Degree Days 8 10  
Month to date heating degree days 70 104  
Since 1 July heating degree days 88 169  
Cooling Degree Days 0 0  
Month to date cooling degree days 26 7  
Year to date cooling degree days 1163 962  
Growing Degree Days 6 (Base 50)    
Moisture  
Dew Point 48 °F    
Average Humidity 74    
Maximum Humidity 89    
Minimum Humidity 52    
Precipitation  
Precipitation T in 0.11 in 1.20 in (1866)
Month to date precipitation 0.90 1.91  
Year to date precipitation 39.56 37.16  
Sea Level Pressure  
Sea Level Pressure 30.04 in    
Wind  
Wind Speed 5 mph ()    
Max Wind Speed 14 mph    
Max Gust Speed 17 mph    
Visibility 10.0 miles    
Events Rain    
T = Trace of Precipitation, MM = Missing Value Source: Averaged Metar Reports

Daily Weather History Graph

Daily Weather History Graph

Search for Another Location

Airport or City:

Astronomy

Oct. 13, 2019 Rise Set
Actual Time 7:07 AM EDT 6:22 PM EDT
Civil Twilight 6:40 AM EDT 6:50 PM EDT
Nautical Twilight 6:08 AM EDT 7:21 PM EDT
Astronomical Twilight 5:37 AM EDT 7:53 PM EDT
Moon 6:44 PM EDT (10/13) 6:39 AM EDT (10/13)
Length of Visible Light 12h 09m
Length of Day
11h 15m
Full, 100% of the Moon is Illuminated
Oct 13
Full
Oct 13
Full
Oct 21
Last Quarter
Oct 27
New
Nov 4
First Quarter

Hourly Weather History & Observations

Time (EDT) Temp. Dew Point Humidity Pressure Visibility Wind Dir Wind Speed Gust Speed Precip Events Conditions
12:53 AM 54.0 °F 48.9 °F 83% 30.00 in 10.0 mi WNW 3.5 mph - N/A   Clear
1:53 AM 53.1 °F 48.9 °F 86% 30.01 in 10.0 mi West 4.6 mph - N/A   Clear
2:53 AM 52.0 °F 46.9 °F 83% 30.02 in 10.0 mi WNW 4.6 mph - N/A   Clear
3:53 AM 50.0 °F 46.0 °F 86% 30.03 in 10.0 mi WNW 3.5 mph - N/A   Clear
4:53 AM 50.0 °F 45.0 °F 83% 30.04 in 10.0 mi WNW 5.8 mph - N/A   Clear
5:53 AM 48.0 °F 44.1 °F 86% 30.06 in 10.0 mi NW 5.8 mph - N/A   Clear
6:53 AM 48.0 °F 44.1 °F 86% 30.08 in 10.0 mi WNW 5.8 mph - N/A   Clear
7:53 AM 48.9 °F 45.0 °F 86% 30.10 in 10.0 mi NW 6.9 mph - N/A   Clear
8:53 AM 52.0 °F 46.0 °F 80% 30.10 in 10.0 mi NNW 5.8 mph - N/A   Clear
9:53 AM 57.0 °F 46.9 °F 69% 30.11 in 10.0 mi North 6.9 mph - N/A   Clear
10:53 AM 57.9 °F 46.0 °F 65% 30.09 in 10.0 mi NE 9.2 mph - N/A   Overcast
11:53 AM 59.0 °F 45.0 °F 60% 30.09 in 10.0 mi ENE 6.9 mph - N/A   Clear
12:53 PM 62.1 °F 45.0 °F 53% 30.08 in 10.0 mi ENE 5.8 mph - N/A   Partly Cloudy
1:53 PM 64.0 °F 46.9 °F 54% 30.06 in 10.0 mi SE 3.5 mph - N/A   Mostly Cloudy
2:53 PM 64.0 °F 46.0 °F 52% 30.04 in 10.0 mi Variable 3.5 mph - N/A   Overcast
3:53 PM 64.0 °F 48.0 °F 56% 30.04 in 10.0 mi South 5.8 mph - N/A   Mostly Cloudy
4:53 PM 64.9 °F 46.9 °F 52% 30.02 in 10.0 mi South 5.8 mph - N/A   Partly Cloudy
5:53 PM 63.0 °F 46.9 °F 56% 30.01 in 10.0 mi South 4.6 mph - N/A   Mostly Cloudy
6:53 PM 62.1 °F 52.0 °F 70% 30.02 in 10.0 mi South 8.1 mph - N/A   Overcast
7:53 PM 60.1 °F 53.1 °F 78% 30.03 in 10.0 mi South 10.4 mph - N/A   Overcast
8:53 PM 59.0 °F 53.1 °F 81% 30.02 in 10.0 mi SSE 9.2 mph - N/A   Overcast
9:46 PM 59.0 °F 54.0 °F 83% 30.03 in 10.0 mi South 4.6 mph - N/A   Overcast
9:53 PM 59.0 °F 54.0 °F 83% 30.01 in 10.0 mi South 5.8 mph - N/A   Overcast
10:53 PM 57.9 °F 54.0 °F 87% 30.01 in 10.0 mi South 3.5 mph - 0.00 in Rain Light Rain
11:53 PM 57.0 °F 54.0 °F 89% 30.00 in 9.0 mi Calm Calm - 0.00 in Rain Light Rain